Climatologie pour Saint-Brevin les Pins
Jour • Résumé pour juillet 7, 2017 Système :  Métrique    Anglais   Mixte
« - 1 jour
+ 1 jour »
Jour Semaine Mois Année Personnalisé
  Maximum : Minimum : Moyenne :
Température sous abri : -17.8 °C -7.3 °C -5.5 °C
Point de rosée : -17.8 °C -8.6 °C -7.7 °C
Humidité : Humidity % 61 % 79 %
Vitesse du vent : 0 km/h 0 km/h 6.3 km/h
Rafale : 0 km/h - -
Direction :- - SSW
Pression : 0 hPa 34418.7 hPa -
Précipitations : 0 mm    
Historical Graphs
 
 
Tableau de données pour juillet 7, 2017
Heure Tempé Pt rosée Pression Vent Vitesse Rafale Humidité Taux pluie (/hr) Soleil
-17.8 °C -17.8 °C 0 hPa Calm     Humidity % 0 mm SolarRadiationWatts/m^2 W/m2 Conditions
00:00 -6.8 °C -7.9 °C 34442.4 hPa Calm   12.9 km/h 89 % 0 mm 0 W/m2
00:10 -6.8 °C -7.9 °C 34442.4 hPa SW 5.1 km/h 12.9 km/h 89 % 0 mm 0 W/m2
00:15 -6.8 °C -7.9 °C 34442.4 hPa WSW 7.7 km/h 12.9 km/h 89 % 0 mm 0 W/m2
00:20 -6.9 °C -7.9 °C 34442.4 hPa West 10.3 km/h 12.9 km/h 89 % 0 mm 0 W/m2
00:25 -6.9 °C -7.9 °C 34442.4 hPa West 2.6 km/h 10.3 km/h 89 % 0 mm 0 W/m2
00:35 -6.9 °C -8.1 °C 34452.6 hPa West 7.7 km/h 15.6 km/h 88 % 0 mm 0 W/m2
00:40 -6.9 °C -8.1 °C 34452.6 hPa WNW 7.7 km/h 15.6 km/h 88 % 0 mm 0 W/m2
00:45 -6.9 °C -8.1 °C 34452.6 hPa Calm   12.9 km/h 88 % 0 mm 0 W/m2
00:50 -6.9 °C -8.1 °C 34452.6 hPa Calm   12.9 km/h 88 % 0 mm 0 W/m2
00:55 -6.9 °C -8.1 °C 34452.6 hPa WSW 2.6 km/h 10.3 km/h 88 % 0 mm 0 W/m2
01:00 -6.9 °C -8.1 °C 34452.6 hPa Calm   10.3 km/h 88 % 0 mm 0 W/m2
01:05 -6.9 °C -8.1 °C 34462.7 hPa WSW 7.7 km/h 7.7 km/h 88 % 0 mm 0 W/m2
01:10 -7 °C -8 °C 34462.7 hPa WSW 10.3 km/h 10.3 km/h 89 % 0 mm 0 W/m2
01:15 -6.9 °C -8 °C 34462.7 hPa West 10.3 km/h 12.9 km/h 89 % 0 mm 0 W/m2
01:20 -7 °C -8 °C 34462.7 hPa Calm   12.9 km/h 89 % 0 mm 0 W/m2
01:25 -7 °C -8 °C 34462.7 hPa Calm   10.3 km/h 89 % 0 mm 0 W/m2
01:30 -7 °C -8 °C 34452.6 hPa West 2.6 km/h 10.3 km/h 89 % 0 mm 0 W/m2
01:35 -7 °C -8.1 °C 34462.7 hPa WNW 2.6 km/h 10.3 km/h 89 % 0 mm 0 W/m2
01:40 -7.1 °C -7.9 °C 34462.7 hPa Calm   10.3 km/h 90 % 0 mm 0 W/m2
01:45 -7.1 °C -8 °C 34452.6 hPa NW 2.6 km/h 10.3 km/h 90 % 0 mm 0 W/m2
01:50 -7.1 °C -8 °C 34452.6 hPa NW 2.6 km/h 10.3 km/h 90 % 0 mm 0 W/m2
01:55 -7.1 °C -8.1 °C 34452.6 hPa NW 2.6 km/h 10.3 km/h 90 % 0 mm 0 W/m2
02:00 -7.1 °C -8.1 °C 34452.6 hPa Calm   7.7 km/h 90 % 0 mm 0 W/m2
02:05 -7.1 °C -8.1 °C 34452.6 hPa Calm   7.7 km/h 90 % 0 mm 0 W/m2
02:10 -7.1 °C -8.1 °C 34452.6 hPa West 5.1 km/h 7.7 km/h 90 % 0 mm 0 W/m2
02:15 -7.1 °C -8.1 °C 34442.4 hPa West 5.1 km/h 10.3 km/h 90 % 0 mm 0 W/m2
02:20 -7.1 °C -8.1 °C 34442.4 hPa Calm   10.3 km/h 90 % 0 mm 0 W/m2
02:25 -7.1 °C -8.1 °C 34452.6 hPa West 2.6 km/h 7.7 km/h 90 % 0 mm 0 W/m2
02:30 -7.2 °C -8.1 °C 34442.4 hPa Calm   7.7 km/h 90 % 0 mm 0 W/m2
02:35 -7.2 °C -8.1 °C 34442.4 hPa Calm   7.7 km/h 90 % 0 mm 0 W/m2
02:40 -7.2 °C -8.1 °C 34442.4 hPa Calm   2.6 km/h 90 % 0 mm 0 W/m2
02:45 -7.2 °C -8.1 °C 34442.4 hPa Calm     90 % 0 mm 0 W/m2
02:50 -7.2 °C -8.1 °C 34442.4 hPa Calm     90 % 0 mm 0 W/m2
02:55 -7.2 °C -8.1 °C 34442.4 hPa Calm   12.9 km/h 90 % 0 mm 0 W/m2
03:00 -7.2 °C -8.1 °C 34442.4 hPa Calm   12.9 km/h 90 % 0 mm 0 W/m2
03:05 -7.2 °C -8.1 °C 34442.4 hPa Calm   7.7 km/h 90 % 0 mm 0 W/m2
03:10 -7.2 °C -8.1 °C 34442.4 hPa Calm   5.1 km/h 90 % 0 mm 0 W/m2
03:15 -7.1 °C -8.1 °C 34442.4 hPa Calm   5.1 km/h 90 % 0 mm 0 W/m2
03:20 -7.2 °C -8.1 °C 34442.4 hPa Calm   5.1 km/h 90 % 0 mm 0 W/m2
03:25 -7.2 °C -8.1 °C 34442.4 hPa Calm   2.6 km/h 90 % 0 mm 0 W/m2
03:30 -7.2 °C -8.1 °C 34442.4 hPa Calm   5.1 km/h 90 % 0 mm 0 W/m2
03:35 -7.2 °C -8.1 °C 34442.4 hPa Calm   5.1 km/h 90 % 0 mm 0 W/m2
03:40 -7.2 °C -8.1 °C 34442.4 hPa WSW 2.6 km/h 2.6 km/h 90 % 0 mm 0 W/m2
03:45 -7.2 °C -8.1 °C 34442.4 hPa Calm   5.1 km/h 90 % 0 mm 0 W/m2
03:50 -7.2 °C -8.2 °C 34442.4 hPa Calm   5.1 km/h 90 % 0 mm 0 W/m2
03:55 -7.2 °C -8.1 °C 34442.4 hPa Calm   2.6 km/h 90 % 0 mm 0 W/m2
04:00 -7.2 °C -8.1 °C 34442.4 hPa Calm   2.6 km/h 90 % 0 mm 0 W/m2
04:05 -7.2 °C -8.2 °C 34442.4 hPa Calm     90 % 0 mm 0 W/m2
04:10 -7.2 °C -8.2 °C 34442.4 hPa Calm     90 % 0 mm 0 W/m2
04:15 -7.3 °C -8.1 °C 34442.4 hPa Calm     91 % 0 mm 0 W/m2
04:20 -7.3 °C -8.1 °C 34442.4 hPa Calm     91 % 0 mm 0 W/m2
04:25 -7.3 °C -8.1 °C 34442.4 hPa Calm   2.6 km/h 91 % 0 mm 0 W/m2
04:30 -7.3 °C -8.1 °C 34442.4 hPa Calm   5.1 km/h 91 % 0 mm 0 W/m2
04:35 -7.3 °C -8.1 °C 34442.4 hPa Calm   5.1 km/h 91 % 0 mm 0 W/m2
04:40 -7.3 °C -8.2 °C 34442.4 hPa Calm   5.1 km/h 91 % 0 mm 0 W/m2
04:45 -7.3 °C -8.2 °C 34428.8 hPa NW 2.6 km/h 7.7 km/h 91 % 0 mm 0 W/m2
04:50 -7.3 °C -8.1 °C 34428.8 hPa Calm   10.3 km/h 91 % 0 mm 0 W/m2
04:55 -7.3 °C -8.1 °C 34428.8 hPa NNW 2.6 km/h 10.3 km/h 91 % 0 mm 0 W/m2
05:00 -7.3 °C -8.2 °C 34428.8 hPa NNW 2.6 km/h 7.7 km/h 91 % 0 mm 0 W/m2
05:05 -7.3 °C -8.2 °C 34428.8 hPa North 5.1 km/h 7.7 km/h 91 % 0 mm 0 W/m2
05:10 -7.3 °C -8.1 °C 34428.8 hPa Calm   12.9 km/h 91 % 0 mm 0 W/m2
05:20 -7.3 °C -8.2 °C 34428.8 hPa North 5.1 km/h 15.6 km/h 91 % 0 mm 0 W/m2
05:25 -7.3 °C -8.2 °C 34428.8 hPa North 2.6 km/h 12.9 km/h 91 % 0 mm 0 W/m2
05:30 -7.3 °C -8.2 °C 34428.8 hPa NNW 5.1 km/h 12.9 km/h 90 % 0 mm 0 W/m2
05:35 -7.3 °C -8.2 °C 34428.8 hPa NNE 7.7 km/h 18.2 km/h 90 % 0 mm 0 W/m2
05:40 -7.3 °C -8.2 °C 34428.8 hPa NE 10.3 km/h 18.2 km/h 90 % 0 mm 0 W/m2
05:45 -7.3 °C -8.2 °C 34428.8 hPa North 10.3 km/h 15.6 km/h 90 % 0 mm 0 W/m2
05:50 -7.3 °C -8.2 °C 34428.8 hPa Calm   15.6 km/h 90 % 0 mm 0 W/m2
05:55 -7.3 °C -8.2 °C 34428.8 hPa North 10.3 km/h 12.9 km/h 90 % 0 mm 0 W/m2
06:00 -7.3 °C -8.2 °C 34428.8 hPa North 2.6 km/h 15.6 km/h 90 % 0 mm 0 W/m2
06:05 -7.3 °C -8.2 °C 34442.4 hPa North 5.1 km/h 15.6 km/h 90 % 0 mm 0 W/m2
06:10 -7.3 °C -8.2 °C 34442.4 hPa NNE 2.6 km/h 10.3 km/h 90 % 0 mm 0 W/m2
06:15 -7.3 °C -8.2 °C 34452.6 hPa Calm   12.9 km/h 90 % 0 mm 0 W/m2
06:25 -7.3 °C -8.2 °C 34452.6 hPa NNE 7.7 km/h 7.7 km/h 90 % 0 mm 0 W/m2
06:30 -7.3 °C -8.2 °C 34452.6 hPa NNE 5.1 km/h 7.7 km/h 90 % 0 mm 0 W/m2
06:35 -7.3 °C -8.2 °C 34452.6 hPa NE 5.1 km/h 10.3 km/h 90 % 0 mm 0 W/m2
06:40 -7.3 °C -8.2 °C 34462.7 hPa Calm   10.3 km/h 90 % 0 mm 5 W/m2
06:45 -7.3 °C -8.2 °C 34462.7 hPa North 5.1 km/h 12.9 km/h 90 % 0 mm 7 W/m2
06:50 -7.3 °C -8.2 °C 34476.3 hPa NNE 2.6 km/h 12.9 km/h 90 % 0 mm 7 W/m2
06:55 -7.2 °C -8.2 °C 34476.3 hPa Calm   12.9 km/h 90 % 0 mm 9 W/m2
07:00 -7.2 °C -8.1 °C 34476.3 hPa NNE 2.6 km/h 7.7 km/h 90 % 0 mm 11 W/m2
07:05 -7.2 °C -8.1 °C 34476.3 hPa Calm   7.7 km/h 90 % 0 mm 12 W/m2
07:10 -7.2 °C -8.1 °C 34476.3 hPa Calm   7.7 km/h 90 % 0 mm 18 W/m2
07:15 -7.1 °C -8.1 °C 34476.3 hPa NE 2.6 km/h 7.7 km/h 90 % 0 mm 32 W/m2
07:20 -7.1 °C -8.1 °C 34476.3 hPa Calm   5.1 km/h 90 % 0 mm 40 W/m2
07:25 -7.1 °C -8.1 °C 34476.3 hPa NE 2.6 km/h 5.1 km/h 90 % 0 mm 42 W/m2
07:30 -7.1 °C -8.1 °C 34476.3 hPa Calm   5.1 km/h 90 % 0 mm 51 W/m2
07:35 -7.1 °C -8.1 °C 34476.3 hPa Calm   5.1 km/h 90 % 0 mm 49 W/m2
07:40 -7.1 °C -8 °C 34486.4 hPa Calm   2.6 km/h 90 % 0 mm 54 W/m2
07:45 -7 °C -7.9 °C 34476.3 hPa NE 5.1 km/h 5.1 km/h 90 % 0 mm 76 W/m2
07:50 -7 °C -7.9 °C 34476.3 hPa NE 2.6 km/h 5.1 km/h 90 % 0 mm 109 W/m2
07:55 -6.9 °C -7.9 °C 34476.3 hPa Calm   5.1 km/h 89 % 0 mm 134 W/m2
08:00 -6.8 °C -7.8 °C 34476.3 hPa Calm   7.7 km/h 89 % 0 mm 155 W/m2
08:05 -6.8 °C -7.9 °C 34476.3 hPa Calm   7.7 km/h 88 % 0 mm 160 W/m2
08:10 -6.8 °C -7.9 °C 34476.3 hPa Calm   7.7 km/h 88 % 0 mm 162 W/m2
08:15 -6.8 °C -7.9 °C 34476.3 hPa North 2.6 km/h 10.3 km/h 88 % 0 mm 100 W/m2
08:20 -6.8 °C -7.9 °C 34476.3 hPa NE 2.6 km/h 10.3 km/h 88 % 0 mm 102 W/m2
08:25 -6.9 °C -8 °C 34476.3 hPa NE 5.1 km/h 10.3 km/h 88 % 0 mm 113 W/m2
08:30 -6.8 °C -7.9 °C 34476.3 hPa Calm   7.7 km/h 89 % 0 mm 104 W/m2
08:35 -6.9 °C -8 °C 34486.4 hPa NE 2.6 km/h 7.7 km/h 88 % 0 mm 111 W/m2
08:40 -6.8 °C -7.8 °C 34476.3 hPa Calm   7.7 km/h 89 % 0 mm 339 W/m2
08:45 -6.6 °C -7.9 °C 34476.3 hPa Calm   5.1 km/h 87 % 0 mm 320 W/m2
08:50 -6.6 °C -7.9 °C 34476.3 hPa Calm   5.1 km/h 86 % 0 mm 325 W/m2
08:55 -6.3 °C -8 °C 34486.4 hPa Calm   15.6 km/h 83 % 0 mm 332 W/m2
09:00 -6.3 °C -7.8 °C 34486.4 hPa ESE 2.6 km/h 15.6 km/h 84 % 0 mm 355 W/m2
09:05 -6.2 °C -7.9 °C 34476.3 hPa Calm   7.7 km/h 82 % 0 mm 156 W/m2
09:10 -6.2 °C -7.8 °C 34476.3 hPa East 12.9 km/h 12.9 km/h 83 % 0 mm 388 W/m2
09:15 -5.9 °C -7.8 °C 34476.3 hPa ESE 5.1 km/h 12.9 km/h 81 % 0 mm 369 W/m2
09:20 -6 °C -8 °C 34476.3 hPa ESE 7.7 km/h 12.9 km/h 80 % 0 mm 364 W/m2
09:25 -5.9 °C -7.8 °C 34476.3 hPa East 7.7 km/h 12.9 km/h 81 % 0 mm 394 W/m2
09:30 -5.8 °C -7.8 °C 34486.4 hPa Calm   10.3 km/h 80 % 0 mm 422 W/m2
09:35 -5.7 °C -7.6 °C 34476.3 hPa NE 12.9 km/h 12.9 km/h 81 % 0 mm 432 W/m2
09:40 -5.6 °C -7.6 °C 34476.3 hPa Calm   15.6 km/h 80 % 0 mm 446 W/m2
09:45 -5.6 °C -7.8 °C 34486.4 hPa Calm   15.6 km/h 78 % 0 mm 457 W/m2
09:50 -5.4 °C -7.6 °C 34486.4 hPa ESE 2.6 km/h 7.7 km/h 78 % 0 mm 475 W/m2
09:55 -5.2 °C -7.6 °C 34486.4 hPa East 7.7 km/h 12.9 km/h 77 % 0 mm 476 W/m2
10:00 -5.1 °C -7.7 °C 34486.4 hPa NE 5.1 km/h 12.9 km/h 75 % 0 mm 499 W/m2
10:05 -5.1 °C -7.8 °C 34486.4 hPa NE 7.7 km/h 12.9 km/h 74 % 0 mm 503 W/m2
10:10 -4.9 °C -7.7 °C 34486.4 hPa Calm   15.6 km/h 74 % 0 mm 527 W/m2
10:15 -5.1 °C -7.9 °C 34486.4 hPa East 2.6 km/h 15.6 km/h 73 % 0 mm 538 W/m2
10:20 -4.8 °C -7.7 °C 34486.4 hPa NE 5.1 km/h 20.8 km/h 73 % 0 mm 548 W/m2
10:25 -4.8 °C -7.7 °C 34486.4 hPa Calm   20.8 km/h 72 % 0 mm 563 W/m2
10:30 -4.7 °C -7.6 °C 34486.4 hPa SSE 2.6 km/h 18.2 km/h 73 % 0 mm 578 W/m2
10:35 -4.7 °C -7.5 °C 34486.4 hPa North 10.3 km/h 18.2 km/h 73 % 0 mm 584 W/m2
10:40 -4.5 °C -7.5 °C 34486.4 hPa NNE 2.6 km/h 18.2 km/h 72 % 0 mm 594 W/m2
10:45 -4.3 °C -7.6 °C 34486.4 hPa ESE 5.1 km/h 15.6 km/h 70 % 0 mm 617 W/m2
10:50 -4.3 °C -7.5 °C 34486.4 hPa NNE 7.7 km/h 12.9 km/h 70 % 0 mm 452 W/m2
10:55 -4.3 °C -7.4 °C 34486.4 hPa Calm   18.2 km/h 71 % 0 mm 628 W/m2
11:00 -4.3 °C -7.7 °C 34486.4 hPa Calm   18.2 km/h 69 % 0 mm 652 W/m2
11:05 -4.1 °C -7.6 °C 34486.4 hPa NNW 7.7 km/h 18.2 km/h 68 % 0 mm 668 W/m2
11:10 -3.8 °C -7.4 °C 34486.4 hPa NNE 2.6 km/h 20.8 km/h 67 % 0 mm 680 W/m2
11:15 -3.7 °C -7.8 °C 34486.4 hPa North 7.7 km/h 23.3 km/h 64 % 0 mm 691 W/m2
11:20 -3.8 °C -7.8 °C 34476.3 hPa NNE 5.1 km/h 23.3 km/h 64 % 0 mm 701 W/m2
11:25 -3.6 °C -7.6 °C 34476.3 hPa NW 7.7 km/h 20.8 km/h 65 % 0 mm 703 W/m2
11:30 -3.5 °C -7.6 °C 34476.3 hPa ENE 12.9 km/h 20.8 km/h 64 % 0 mm 731 W/m2
11:35 -3.2 °C -7.4 °C 34486.4 hPa ENE 12.9 km/h 20.8 km/h 63 % 0 mm 728 W/m2
11:40 -3.4 °C -7.8 °C 34486.4 hPa East 7.7 km/h 20.8 km/h 62 % 0 mm 578 W/m2
11:45 -3.5 °C -7.8 °C 34486.4 hPa East 5.1 km/h 18.2 km/h 62 % 0 mm 701 W/m2
11:50 -3.4 °C -7.4 °C 34486.4 hPa ENE 10.3 km/h 18.2 km/h 65 % 0 mm 737 W/m2
11:55 -3.2 °C -7.6 °C 34486.4 hPa North 10.3 km/h 18.2 km/h 62 % 0 mm 380 W/m2
12:00 -3.4 °C -7.6 °C 34486.4 hPa NW 7.7 km/h 15.6 km/h 63 % 0 mm 666 W/m2
12:05 -3.1 °C -7.6 °C 34486.4 hPa NE 10.3 km/h 18.2 km/h 61 % 0 mm 387 W/m2
12:10 -3.3 °C -7.4 °C 34486.4 hPa NE 5.1 km/h 18.2 km/h 64 % 0 mm 267 W/m2
12:15 -3.2 °C -7.7 °C 34496.6 hPa ENE 7.7 km/h 18.2 km/h 61 % 0 mm 589 W/m2
12:20 -3.2 °C -7.2 °C 34486.4 hPa West 12.9 km/h 20.8 km/h 65 % 0 mm 751 W/m2
12:25 -3.7 °C -7.4 °C 34496.6 hPa SW 23.3 km/h 25.9 km/h 67 % 0 mm 638 W/m2
12:30 -4.4 °C -7.4 °C 34496.6 hPa WNW 10.3 km/h 25.9 km/h 72 % 0 mm 645 W/m2
12:35 -4.4 °C -7.2 °C 34496.6 hPa WSW 7.7 km/h 25.9 km/h 73 % 0 mm 802 W/m2
12:40 -3.9 °C -7.1 °C 34486.4 hPa SW 5.1 km/h 25.9 km/h 71 % 0 mm 840 W/m2
12:45 -4.3 °C -7.4 °C 34486.4 hPa WSW 20.8 km/h 25.9 km/h 71 % 0 mm 793 W/m2
12:50 -4.1 °C -6.9 °C 34486.4 hPa WNW 15.6 km/h 23.3 km/h 73 % 0 mm 842 W/m2
12:55 -4.1 °C -7.2 °C 34486.4 hPa WNW 18.2 km/h 23.3 km/h 71 % 0 mm 838 W/m2
13:00 -4.3 °C -7.5 °C 34486.4 hPa West 5.1 km/h 23.3 km/h 70 % 0 mm 824 W/m2
13:05 -4.2 °C -7.2 °C 34496.6 hPa West 5.1 km/h 25.9 km/h 72 % 0 mm 842 W/m2
13:10 -4.6 °C -7.3 °C 34496.6 hPa WSW 20.8 km/h 28.5 km/h 74 % 0 mm 846 W/m2
13:15 -4.6 °C -7.2 °C 34496.6 hPa WSW 7.7 km/h 28.5 km/h 75 % 0 mm 826 W/m2
13:20 -4.5 °C -7.3 °C 34496.6 hPa WSW 20.8 km/h 28.5 km/h 73 % 0 mm 791 W/m2
13:25 -4.6 °C -7.2 °C 34496.6 hPa West 18.2 km/h 28.5 km/h 75 % 0 mm 837 W/m2
13:30 -4 °C -7 °C 34496.6 hPa West 10.3 km/h 25.9 km/h 72 % 0 mm 847 W/m2
13:35 -4.2 °C -7.2 °C 34496.6 hPa WNW 20.8 km/h 28.5 km/h 72 % 0 mm 858 W/m2
13:40 -4.6 °C -7.4 °C 34496.6 hPa West 7.7 km/h 33.6 km/h 73 % 0 mm 856 W/m2
13:45 -4.4 °C -6.9 °C 34496.6 hPa West 7.7 km/h 33.6 km/h 76 % 0 mm 854 W/m2
13:50 -4.1 °C -7 °C 34496.6 hPa WSW 15.6 km/h 31.1 km/h 73 % 0 mm 858 W/m2
13:55 -4.6 °C -7.3 °C 34486.4 hPa West 12.9 km/h 31.1 km/h 74 % 0 mm 851 W/m2
14:00 -4.1 °C -7.1 °C 34486.4 hPa WNW 10.3 km/h 31.1 km/h 72 % 0 mm 865 W/m2
14:05 -4.1 °C -7.1 °C 34486.4 hPa West 23.3 km/h 31.1 km/h 72 % 0 mm 844 W/m2
14:10 -4.4 °C -7.2 °C 34486.4 hPa NW 18.2 km/h 31.1 km/h 74 % 0 mm 863 W/m2
14:15 -4.2 °C -7.2 °C 34496.6 hPa WSW 10.3 km/h 28.5 km/h 72 % 0 mm 858 W/m2
14:20 -4.6 °C -7.2 °C 34486.4 hPa WNW 12.9 km/h 31.1 km/h 75 % 0 mm 861 W/m2
14:25 -4.4 °C -6.9 °C 34486.4 hPa WSW 20.8 km/h 31.1 km/h 76 % 0 mm 858 W/m2
14:30 -3.7 °C -6.9 °C 34486.4 hPa West 23.3 km/h 31.1 km/h 71 % 0 mm 861 W/m2
14:35 -4.2 °C -6.9 °C 34486.4 hPa West 7.7 km/h 25.9 km/h 74 % 0 mm 858 W/m2
14:40 -4.3 °C -7.1 °C 34476.3 hPa WSW 12.9 km/h 28.5 km/h 73 % 0 mm 853 W/m2
14:45 -4.4 °C -7.1 °C 34486.4 hPa WNW 15.6 km/h 31.1 km/h 75 % 0 mm 853 W/m2
14:50 -4.5 °C -7.3 °C 34476.3 hPa West 23.3 km/h 36.2 km/h 73 % 0 mm 851 W/m2
14:55 -4.6 °C -6.8 °C 34476.3 hPa West 7.7 km/h 36.2 km/h 78 % 0 mm 847 W/m2
15:00 -3.9 °C -6.8 °C 34476.3 hPa WSW 12.9 km/h 28.5 km/h 73 % 0 mm 844 W/m2
15:05 -4 °C -7.1 °C 34486.4 hPa West 12.9 km/h 33.6 km/h 71 % 0 mm 854 W/m2
15:10 -4.3 °C -7.1 °C 34486.4 hPa WNW 18.2 km/h 33.6 km/h 74 % 0 mm 842 W/m2
15:15 -4.5 °C -7.2 °C 34486.4 hPa West 15.6 km/h 36.2 km/h 74 % 0 mm 830 W/m2
15:20 -3.8 °C -6.8 °C 34486.4 hPa West 10.3 km/h 36.2 km/h 72 % 0 mm 821 W/m2
15:25 -4.5 °C -7.2 °C 34476.3 hPa WNW 2.6 km/h 33.6 km/h 74 % 0 mm 819 W/m2
15:30 -4.5 °C -6.9 °C 34476.3 hPa West 18.2 km/h 33.6 km/h 76 % 0 mm 810 W/m2
15:35 -4.4 °C -6.9 °C 34476.3 hPa WSW 10.3 km/h 31.1 km/h 76 % 0 mm 809 W/m2
15:40 -4 °C -7.1 °C 34476.3 hPa WSW 18.2 km/h 31.1 km/h 71 % 0 mm 802 W/m2
15:45 -4 °C -7 °C 34476.3 hPa WNW 25.9 km/h 25.9 km/h 72 % 0 mm 795 W/m2
15:50 -3.8 °C -7.1 °C 34476.3 hPa West 18.2 km/h 28.5 km/h 70 % 0 mm 789 W/m2
15:55 -3.6 °C -6.9 °C 34462.7 hPa West 10.3 km/h 28.5 km/h 70 % 0 mm 784 W/m2
16:05 -4.1 °C -7.1 °C 34462.7 hPa WSW 15.6 km/h 36.2 km/h 72 % 0 mm 766 W/m2
16:10 -3.8 °C -7.1 °C 34462.7 hPa West 20.8 km/h 33.6 km/h 70 % 0 mm 765 W/m2
16:15 -3.5 °C -6.9 °C 34462.7 hPa West 7.7 km/h 33.6 km/h 69 % 0 mm 758 W/m2
16:20 -3.8 °C -7.1 °C 34462.7 hPa WNW 23.3 km/h 31.1 km/h 70 % 0 mm 747 W/m2
16:25 -3.8 °C -7.1 °C 34462.7 hPa West 12.9 km/h 31.1 km/h 70 % 0 mm 742 W/m2
16:30 -3.7 °C -6.9 °C 34462.7 hPa SW 25.9 km/h 28.5 km/h 70 % 0 mm 731 W/m2
16:35 -4.1 °C -7.2 °C 34462.7 hPa WSW 18.2 km/h 31.1 km/h 71 % 0 mm 717 W/m2
16:40 -3.9 °C -6.9 °C 34462.7 hPa West 18.2 km/h 33.6 km/h 72 % 0 mm 705 W/m2
16:45 -3.9 °C -7.1 °C 34462.7 hPa West 7.7 km/h 36.2 km/h 71 % 0 mm 696 W/m2
16:50 -4.1 °C -7.1 °C 34462.7 hPa West 25.9 km/h 36.2 km/h 72 % 0 mm 687 W/m2
17:00 -4.3 °C -7.2 °C 34452.6 hPa WNW 10.3 km/h 38.8 km/h 73 % 0 mm 668 W/m2
17:05 -4.5 °C -7.1 °C 34452.6 hPa West 10.3 km/h 38.8 km/h 75 % 0 mm 652 W/m2
17:10 -4.3 °C -7.1 °C 34452.6 hPa WSW 15.6 km/h 36.2 km/h 74 % 0 mm 647 W/m2
17:15 -3.5 °C -6.8 °C 34442.4 hPa WSW 7.7 km/h 36.2 km/h 70 % 0 mm 640 W/m2
17:20 -3.6 °C -6.8 °C 34442.4 hPa WNW 18.2 km/h 28.5 km/h 70 % 0 mm 629 W/m2
17:25 -3.6 °C -6.8 °C 34442.4 hPa SW 20.8 km/h 28.5 km/h 70 % 0 mm 612 W/m2
17:30 -3.4 °C -7 °C 34442.4 hPa West 10.3 km/h 20.8 km/h 68 % 0 mm 603 W/m2
17:35 -3.4 °C -6.6 °C 34428.8 hPa West 15.6 km/h 23.3 km/h 71 % 0 mm 587 W/m2
17:40 -3.6 °C -6.7 °C 34428.8 hPa West 10.3 km/h 23.3 km/h 71 % 0 mm 575 W/m2
17:45 -3.4 °C -6.8 °C 34428.8 hPa WSW 7.7 km/h 23.3 km/h 69 % 0 mm 564 W/m2
17:50 -3.3 °C -6.6 °C 34428.8 hPa West 5.1 km/h 23.3 km/h 70 % 0 mm 550 W/m2
17:55 -2.9 °C -6.7 °C 34428.8 hPa WNW 12.9 km/h 20.8 km/h 66 % 0 mm 541 W/m2
18:00 -3 °C -6.7 °C 34428.8 hPa WNW 7.7 km/h 20.8 km/h 67 % 0 mm 529 W/m2
18:05 -3.1 °C -6.9 °C 34428.8 hPa West 10.3 km/h 20.8 km/h 66 % 0 mm 515 W/m2
18:10 -2.7 °C -6.5 °C 34428.8 hPa SW 2.6 km/h 18.2 km/h 66 % 0 mm 504 W/m2
18:15 -2.7 °C -6.6 °C 34428.8 hPa SW 10.3 km/h 18.2 km/h 66 % 0 mm 489 W/m2
18:20 -2.7 °C -6.8 °C 34428.8 hPa WSW 18.2 km/h 18.2 km/h 64 % 0 mm 475 W/m2
18:25 -3.2 °C -6.7 °C 34428.8 hPa WNW 7.7 km/h 23.3 km/h 68 % 0 mm 464 W/m2
18:30 -3.4 °C -6.8 °C 34428.8 hPa West 2.6 km/h 25.9 km/h 69 % 0 mm 450 W/m2
18:35 -3.2 °C -6.6 °C 34428.8 hPa WSW 2.6 km/h 25.9 km/h 69 % 0 mm 441 W/m2
18:40 -3.2 °C -6.7 °C 34428.8 hPa WNW 7.7 km/h 23.3 km/h 69 % 0 mm 424 W/m2
18:45 -3.2 °C -6.7 °C 34428.8 hPa SW 12.9 km/h 23.3 km/h 69 % 0 mm 408 W/m2
18:50 -3.3 °C -6.7 °C 34428.8 hPa West 10.3 km/h 15.6 km/h 69 % 0 mm 399 W/m2
18:55 -3.2 °C -6.7 °C 34428.8 hPa WNW 7.7 km/h 15.6 km/h 69 % 0 mm 385 W/m2
19:00 -3.3 °C -6.6 °C 34428.8 hPa WSW 5.1 km/h 18.2 km/h 70 % 0 mm 373 W/m2
19:05 -3.3 °C -6.7 °C 34418.7 hPa West 5.1 km/h 18.2 km/h 69 % 0 mm 360 W/m2
19:10 -3.1 °C -6.7 °C 34428.8 hPa WSW 12.9 km/h 28.5 km/h 68 % 0 mm 346 W/m2
19:15 -3.4 °C -6.9 °C 34428.8 hPa West 12.9 km/h 28.5 km/h 68 % 0 mm 330 W/m2
19:20 -3.6 °C -7 °C 34428.8 hPa WSW 10.3 km/h 25.9 km/h 69 % 0 mm 318 W/m2
19:25 -3.5 °C -6.8 °C 34428.8 hPa SW 12.9 km/h 23.3 km/h 70 % 0 mm 301 W/m2
19:30 -3.7 °C -6.9 °C 34428.8 hPa WSW 10.3 km/h 23.3 km/h 70 % 0 mm 288 W/m2
19:35 -3.8 °C -7.1 °C 34428.8 hPa WNW 10.3 km/h 20.8 km/h 70 % 0 mm 274 W/m2
19:40 -4.2 °C -7.1 °C 34428.8 hPa West 12.9 km/h 28.5 km/h 73 % 0 mm 258 W/m2
19:45 -4.2 °C -7.2 °C 34428.8 hPa WNW 7.7 km/h 28.5 km/h 72 % 0 mm 236 W/m2
19:50 -4.2 °C -7.1 °C 34428.8 hPa WNW 18.2 km/h 25.9 km/h 73 % 0 mm 211 W/m2
19:55 -4.3 °C -7.1 °C 34428.8 hPa West 10.3 km/h 25.9 km/h 73 % 0 mm 190 W/m2
20:00 -4.3 °C -7.2 °C 34428.8 hPa WSW 12.9 km/h 31.1 km/h 72 % 0 mm 176 W/m2
20:05 -4.3 °C -7.3 °C 34428.8 hPa NW 2.6 km/h 31.1 km/h 72 % 0 mm 163 W/m2
20:10 -4.3 °C -7.2 °C 34428.8 hPa West 7.7 km/h 20.8 km/h 72 % 0 mm 158 W/m2
20:15 -4.3 °C -7.3 °C 34428.8 hPa West 7.7 km/h 20.8 km/h 72 % 0 mm 153 W/m2
20:20 -4.3 °C -7.4 °C 34428.8 hPa West 10.3 km/h 20.8 km/h 71 % 0 mm 142 W/m2
20:25 -4.2 °C -7.3 °C 34428.8 hPa West 7.7 km/h 18.2 km/h 71 % 0 mm 125 W/m2
20:30 -4.2 °C -7.4 °C 34428.8 hPa NW 7.7 km/h 20.8 km/h 70 % 0 mm 107 W/m2
20:35 -4.2 °C -7.4 °C 34428.8 hPa WNW 12.9 km/h 20.8 km/h 70 % 0 mm 95 W/m2
20:40 -4.2 °C -7.6 °C 34442.4 hPa West 10.3 km/h 20.8 km/h 69 % 0 mm 72 W/m2
20:45 -4.3 °C -7.4 °C 34428.8 hPa Calm   18.2 km/h 71 % 0 mm 46 W/m2
20:50 -4.4 °C -7.4 °C 34428.8 hPa West 2.6 km/h 18.2 km/h 72 % 0 mm 42 W/m2
20:55 -4.6 °C -7.5 °C 34428.8 hPa WNW 5.1 km/h 15.6 km/h 72 % 0 mm 40 W/m2
21:00 -4.6 °C -7.6 °C 34442.4 hPa Calm   15.6 km/h 72 % 0 mm 39 W/m2
21:05 -4.8 °C -7.5 °C 34442.4 hPa Calm   10.3 km/h 74 % 0 mm 35 W/m2
21:10 -4.9 °C -7.4 °C 34442.4 hPa Calm   10.3 km/h 76 % 0 mm 32 W/m2
21:15 -4.9 °C -7.4 °C 34442.4 hPa Calm   5.1 km/h 76 % 0 mm 28 W/m2
21:20 -5 °C -7.4 °C 34442.4 hPa WNW 2.6 km/h 2.6 km/h 77 % 0 mm 26 W/m2
21:25 -5.1 °C -7.4 °C 34442.4 hPa Calm   5.1 km/h 77 % 0 mm 23 W/m2
21:30 -5.1 °C -7.4 °C 34442.4 hPa Calm   7.7 km/h 78 % 0 mm 21 W/m2
21:35 -5.2 °C -7.4 °C 34442.4 hPa Calm   7.7 km/h 78 % 0 mm 18 W/m2
21:40 -5.4 °C -7.4 °C 34442.4 hPa Calm   7.7 km/h 80 % 0 mm 16 W/m2
21:45 -5.5 °C -7.5 °C 34442.4 hPa Calm   7.7 km/h 80 % 0 mm 12 W/m2
21:50 -5.6 °C -7.5 °C 34442.4 hPa Calm   2.6 km/h 81 % 0 mm 11 W/m2
21:55 -5.7 °C -7.6 °C 34428.8 hPa Calm   2.6 km/h 81 % 0 mm 9 W/m2
22:00 -5.9 °C -7.7 °C 34428.8 hPa Calm     82 % 0 mm 7 W/m2
22:05 -5.9 °C -7.7 °C 34428.8 hPa Calm     82 % 0 mm 0 W/m2
22:10 -6 °C -7.7 °C 34428.8 hPa Calm   2.6 km/h 83 % 0 mm 0 W/m2
22:20 -6.2 °C -7.8 °C 34452.6 hPa WNW 2.6 km/h 7.7 km/h 83 % 0 mm 0 W/m2
22:25 -6.2 °C -7.8 °C 34452.6 hPa Calm   7.7 km/h 83 % 0 mm 0 W/m2
22:30 -6.2 °C -7.9 °C 34452.6 hPa Calm   5.1 km/h 83 % 0 mm 0 W/m2
22:35 -6.3 °C -7.9 °C 34452.6 hPa Calm   2.6 km/h 84 % 0 mm 0 W/m2
22:40 -6.4 °C -7.9 °C 34452.6 hPa Calm   2.6 km/h 84 % 0 mm 0 W/m2
22:50 -6.5 °C -7.9 °C 34462.7 hPa Calm   2.6 km/h 85 % 0 mm 0 W/m2
22:55 -6.4 °C -7.9 °C 34462.7 hPa Calm   2.6 km/h 85 % 0 mm 0 W/m2
23:00 -6.4 °C -7.9 °C 34462.7 hPa Calm     85 % 0 mm 0 W/m2
23:05 -6.5 °C -7.9 °C 34462.7 hPa Calm     85 % 0 mm 0 W/m2
23:10 -6.6 °C -8 °C 34462.7 hPa Calm     85 % 0 mm 0 W/m2
23:15 -6.7 °C -8 °C 34462.7 hPa Calm     86 % 0 mm 0 W/m2
23:20 -6.7 °C -7.9 °C 34462.7 hPa Calm   2.6 km/h 87 % 0 mm 0 W/m2
23:25 -6.7 °C -7.9 °C 34462.7 hPa Calm   15.6 km/h 87 % 0 mm 0 W/m2
23:30 -6.5 °C -7.9 °C 34462.7 hPa North 7.7 km/h 15.6 km/h 85 % 0 mm 0 W/m2
23:35 -6.3 °C -8.2 °C 34462.7 hPa North 5.1 km/h 23.3 km/h 81 % 0 mm 0 W/m2
23:40 -6.3 °C -8.3 °C 34476.3 hPa NNE 2.6 km/h 23.3 km/h 80 % 0 mm 0 W/m2
23:45 -6.3 °C -8.4 °C 34476.3 hPa NNE 5.1 km/h 18.2 km/h 79 % 0 mm 0 W/m2
23:50 -6.3 °C -8.5 °C 34476.3 hPa NNE 10.3 km/h 18.2 km/h 78 % 0 mm 0 W/m2
23:55 -6.2 °C -8.6 °C 34476.3 hPa NE 5.1 km/h 18.2 km/h 76 % 0 mm 0 W/m2
Avec l'autorisation de Weather Underground - 1.75 mb